#timestamp,LO_Frequency,Hit 
1501038015.4,286047009.3,N
1501038035.2,286047013.1,N
1501038055.0,286047013.8,N
1501038055.9,286047013.8,N
1501038075.8,286047011.5,N
1501038095.6,286047015.1,N
1501038115.4,286047016.4,Y
1501038135.3,286047010.5,N
1501038155.1,286047015.9,N
1501038156.0,286047015.9,N
1501038175.8,286047013.4,N
1501038195.7,286047014.7,N
1501038215.5,286047012.3,N
1501038235.3,286047007.8,N
1501038255.2,286047010.7,N
1501038275.9,286047007.5,N
1501038295.7,286047007.0,N
1501038315.5,286047009.1,N
1501038335.4,286047006.1,N
1501038355.2,286047006.9,N
1501038375.0,286047011.5,N
1501038375.9,286047011.5,N
1501038395.8,286047007.7,N
1501038415.6,286047015.6,N
1501038435.4,286047010.0,N
1501038455.3,286047007.9,N
1501038475.1,286047008.0,N
1501038476.0,286047008.0,N
1501038495.8,286047006.2,N
1501038515.7,286047007.3,N
1501038535.5,286047002.9,N
1501038555.3,286047002.2,N
1501038575.1,286047003.8,N
1501038595.9,286047005.4,N
1501038615.7,286047004.5,N
1501038635.5,286047007.8,N
1501038655.4,286047008.7,N
1501038675.2,286047006.7,N
1501038695.0,286047010.2,N
1501038695.9,286047010.2,N
1501038715.8,286047010.0,N
1501038735.6,286047008.5,N
1501038755.4,286047005.2,N
1501038775.3,286047007.0,N
1501038795.1,286047007.9,N
1501038796.0,286047007.9,N
1501038815.8,286047010.1,N
1501038835.7,286047009.0,N
1501038855.5,286047005.7,N
1501038875.3,286047004.8,N
1501038895.1,286047004.6,N
1501038915.9,286047008.9,N
1501038935.7,286047007.5,N
1501038955.5,286047005.4,N
1501038975.4,286047007.9,N
1501038995.2,286047010.5,N
1501039015.0,286047006.7,N
1501039015.9,286047006.7,N
1501039035.8,286047005.7,N
1501039055.6,286047003.2,N
1501039075.4,286047004.0,N
1501039095.2,286047006.7,N
1501039115.1,286047002.9,N
1501039116.0,286047002.9,N
1501039135.8,286047005.9,N
1501039155.6,286047005.0,N
1501039175.5,286047006.6,N
1501039195.3,286047008.5,N
1501039215.1,286047012.4,N
1501039235.9,286047012.9,N
1501039255.7,286047013.9,N
1501039275.5,286047008.8,N
1501039295.4,286047004.9,N
1501039315.2,286047005.3,N
1501039335.0,286047006.0,N
1501039335.9,286047006.0,N
1501039355.8,286047001.3,N
1501039375.6,286047000.0,N
1501039395.4,286047000.1,N
1501039415.2,286047007.3,N
1501039435.1,286047010.5,N
1501039436.0,286047010.5,N
1501039455.8,286047011.7,N
1501039475.6,286047013.4,N
1501039495.5,286047017.8,Y
1501039515.3,286047008.9,N
1501039535.1,286047002.0,N
1501039555.9,286047002.3,N
1501039575.7,286047000.1,N
1501039595.5,286046997.8,N
1501039615.4,286047002.2,N
1501039635.2,286047007.1,N
1501039655.0,286047005.3,N
1501039655.9,286047005.3,N
1501039675.8,286047010.6,N
1501039695.6,286047010.5,N
1501039715.4,286047014.0,N
1501039735.2,286047007.7,N
1501039755.1,286047009.2,N
1501039756.0,286047009.2,N
1501039775.8,286047003.1,N
1501039795.6,286047007.5,N
1501039815.5,286047010.0,N
1501039835.3,286047009.3,N
1501039855.1,286047014.0,N
1501039875.9,286047015.4,Y
1501039895.7,286047003.7,N
1501039915.5,286047005.6,N
1501039935.4,286046998.2,N
1501039955.2,286046998.0,N
1501039975.0,286046997.6,N
1501039975.9,286046997.6,N
1501039995.8,286046995.1,N
1501040015.6,286046990.8,N
1501040035.4,286046994.6,N
1501040055.2,286046996.3,N
1501040075.1,286046990.7,N
1501040076.0,286046990.7,N
1501040095.8,286046990.1,N
1501040115.6,286046995.6,N
1501040135.5,286046995.2,N
1501040155.3,286046997.7,N
1501040175.1,286046999.2,N
1501040195.9,286047000.9,N
1501040215.7,286046998.3,N
1501040235.5,286046996.8,N
1501040255.4,286047000.8,N
1501040275.2,286046997.5,N
1501040295.0,286047001.2,N
1501040295.9,286047001.2,N
1501040315.7,286046997.4,N
1501040335.6,286046999.4,N
1501040355.4,286047000.9,N
1501040375.2,286046998.7,N
1501040395.1,286046994.9,N
1501040396.0,286046994.9,N
1501040415.8,286046994.5,N
1501040435.6,286046988.6,N
1501040455.5,286046987.2,N
1501040475.3,286046988.7,N
1501040495.1,286046988.8,N
1501040515.9,286046988.9,N
1501040535.7,286046991.1,N
1501040555.5,286046989.8,N
1501040575.3,286046987.3,N
1501040595.2,286046989.9,N
1501040615.0,286046990.7,N
1501040615.9,286046990.7,N
1501040635.7,286046995.6,N
1501040655.6,286046998.3,N
1501040675.4,286047002.6,N
1501040695.2,286047002.2,N
1501040715.1,286046998.5,N
1501040716.0,286046998.5,N
1501040735.8,286046997.7,N
1501040755.6,286046998.4,N
1501040775.5,286046999.3,N
1501040795.3,286046998.8,N
1501040815.1,286047000.8,N
1501040835.9,286046999.4,N
1501040855.7,286046997.9,N
1501040875.5,286046993.8,N
1501040895.3,286046996.9,N
1501040915.2,286046997.0,N
1501040935.9,286046993.7,N
1501040955.7,286046988.9,N
1501040975.6,286046988.2,N
1501040995.4,286046991.6,N
1501041015.2,286046994.0,N
1501041035.1,286046992.6,N
1501041036.0,286046992.6,N
1501041055.8,286046988.9,N
1501041075.6,286046988.9,N
1501041095.4,286046989.0,N
1501041115.3,286046989.3,N
1501041135.1,286046990.5,N
1501041155.8,286046997.5,N
1501041175.7,286047002.1,N
1501041195.5,286047000.2,N
1501041215.3,286047002.6,N
1501041235.2,286047001.9,N
1501041255.9,286046993.7,N
1501041275.7,286046992.0,N
1501041295.6,286046992.6,N
1501041315.4,286046991.2,N
1501041335.2,286046991.5,N
1501041355.0,286046993.4,N
1501041355.9,286046993.4,N
1501041375.8,286046996.5,N
1501041395.6,286047001.9,N
1501041415.4,286046999.9,N
1501041435.3,286047006.0,N
1501041455.1,286047004.5,N
1501041475.8,286047003.5,N
1501041495.7,286047001.4,N
1501041515.5,286046997.5,N
1501041535.3,286046993.0,N
1501041555.2,286046989.0,N
1501041575.9,286046989.1,N
1501041595.7,286046993.8,N
